• In Belarus
  • List of Countries
  • For 7 days
  • Water Temperature
  • Satellite Maps
  • Weather Map
  • Weather Widgets
  • user-avatar
    Login

    Hourly Weather Polyanica

    Today, 20 October, Friday

    Time Temperature Precipitation Wind Pressure Humidity
    00:00 +11°C° 0 mm 1 mps 715 mmHg 84%
    01:00 +10°C° 0 mm 1 mps 715 mmHg 84%
    02:00 +10°C° 0 mm 1 mps 715 mmHg 84%
    03:00 +10°C° 0 mm 1 mps 715 mmHg 85%
    04:00 +10°C° 0 mm 1 mps 715 mmHg 85%
    05:00 +9°C° 0 mm 1 mps 715 mmHg 85%
    06:00 +10°C° 0 mm 1 mps 715 mmHg 83%
    07:00 +10°C° 0 mm 1 mps 715 mmHg 82%
    08:00 +10°C° 0 mm 1 mps 715 mmHg 80%
    09:00 +12°C° 0 mm 1 mps 716 mmHg 72%
    10:00 +14°C° 0 mm 0 mps 716 mmHg 64%
    11:00 +16°C° 0 mm 0 mps 716 mmHg 55%
    12:00 +19°C° 0 mm 1 mps 716 mmHg 53%
    13:00 +19°C° 0 mm 1 mps 716 mmHg 51%
    14:00 +20°C° 0 mm 1 mps 716 mmHg 49%
    15:00 +18°C° 0 mm 1 mps 716 mmHg 56%
    16:00 +16°C° 0 mm 1 mps 716 mmHg 63%
    17:00 +14°C° 0 mm 1 mps 715 mmHg 70%
    18:00 +13°C° 0 mm 1 mps 715 mmHg 74%
    19:00 +12°C° 0 mm 1 mps 716 mmHg 78%
    20:00 +11°C° 0 mm 1 mps 716 mmHg 83%
    21:00 +11°C° 0 mm 1 mps 716 mmHg 83%
    22:00 +10°C° 0 mm 1 mps 716 mmHg 83%
    23:00 +10°C° 0 mm 1 mps 716 mmHg 83%

    Tomorrow, 21 October, Saturday

    Time Temperature Precipitation Wind Pressure Humidity
    00:00 +10°C° 0 mm 1 mps 716 mmHg 83%
    01:00 +9°C° 0 mm 1 mps 716 mmHg 82%
    02:00 +9°C° 0 mm 1 mps 716 mmHg 82%
    03:00 +9°C° 0 mm 1 mps 716 mmHg 82%
    04:00 +9°C° 0 mm 1 mps 715 mmHg 83%
    05:00 +8°C° 0 mm 1 mps 715 mmHg 83%
    06:00 +9°C° 0 mm 1 mps 715 mmHg 82%
    07:00 +9°C° 0 mm 1 mps 715 mmHg 81%
    08:00 +9°C° 0 mm 1 mps 715 mmHg 80%
    09:00 +12°C° 0 mm 1 mps 715 mmHg 72%
    10:00 +14°C° 0 mm 1 mps 715 mmHg 63%
    11:00 +16°C° 0 mm 1 mps 716 mmHg 55%
    12:00 +17°C° 0 mm 2 mps 715 mmHg 54%
    13:00 +17°C° 0 mm 2 mps 715 mmHg 52%
    14:00 +18°C° 0 mm 2 mps 715 mmHg 51%
    15:00 +16°C° 0.1 mm 2 mps 714 mmHg 58%
    16:00 +15°C° 0.1 mm 2 mps 714 mmHg 65%
    17:00 +14°C° 0.1 mm 1 mps 714 mmHg 72%
    18:00 +13°C° 0.7 mm 1 mps 714 mmHg 78%
    19:00 +12°C° 0.7 mm 1 mps 714 mmHg 84%
    20:00 +11°C° 0.7 mm 1 mps 714 mmHg 89%
    21:00 +11°C° 0.2 mm 1 mps 714 mmHg 90%
    22:00 +10°C° 0.2 mm 1 mps 714 mmHg 90%
    23:00 +10°C° 0.2 mm 1 mps 714 mmHg 90%

    Day after tomorrow, 22 October, Sunday

    Time Temperature Precipitation Wind Pressure Humidity
    00:00 +10°C° 0 mm 1 mps 714 mmHg 91%
    01:00 +9°C° 0 mm 1 mps 714 mmHg 92%
    02:00 +9°C° 0 mm 1 mps 714 mmHg 92%
    03:00 +8°C° 0 mm 1 mps 714 mmHg 93%
    04:00 +8°C° 0 mm 1 mps 714 mmHg 93%
    05:00 +8°C° 0 mm 1 mps 714 mmHg 94%
    06:00 +8°C° 0 mm 1 mps 714 mmHg 93%
    07:00 +8°C° 0 mm 1 mps 714 mmHg 92%
    08:00 +8°C° 0 mm 1 mps 714 mmHg 92%
    09:00 +10°C° 0 mm 1 mps 714 mmHg 85%
    10:00 +12°C° 0 mm 1 mps 714 mmHg 78%
    11:00 +13°C° 0 mm 1 mps 715 mmHg 71%
    12:00 +14°C° 0 mm 1 mps 714 mmHg 68%
    13:00 +14°C° 0 mm 1 mps 714 mmHg 66%
    14:00 +15°C° 0 mm 1 mps 714 mmHg 63%
    15:00 +14°C° 0 mm 1 mps 713 mmHg 69%
    16:00 +13°C° 0 mm 1 mps 713 mmHg 75%
    17:00 +12°C° 0 mm 1 mps 713 mmHg 80%
    18:00 +11°C° 0 mm 1 mps 713 mmHg 84%
    19:00 +9°C° 0 mm 2 mps 713 mmHg 87%
    20:00 +9°C° 0 mm 2 mps 712 mmHg 90%
    21:00 +8°C° 0 mm 2 mps 712 mmHg 89%
    22:00 +8°C° 0 mm 2 mps 712 mmHg 88%
    23:00 +8°C° 0 mm 2 mps 712 mmHg 88%

    23 October, Monday

    Time Temperature Precipitation Wind Pressure Humidity
    00:00 +8°C° 0 mm 2 mps 712 mmHg 86%
    01:00 +8°C° 0 mm 2 mps 711 mmHg 85%
    02:00 +8°C° 0 mm 2 mps 711 mmHg 84%
    03:00 +8°C° 0 mm 2 mps 711 mmHg 84%
    04:00 +8°C° 0 mm 2 mps 710 mmHg 84%
    05:00 +7°C° 0 mm 2 mps 710 mmHg 84%
    06:00 +8°C° 0 mm 2 mps 710 mmHg 83%
    07:00 +8°C° 0 mm 2 mps 709 mmHg 83%
    08:00 +8°C° 0 mm 2 mps 709 mmHg 83%
    09:00 +9°C° 0 mm 2 mps 709 mmHg 80%
    10:00 +10°C° 0 mm 2 mps 709 mmHg 77%
    11:00 +13°C° 0 mm 2 mps 709 mmHg 74%
    12:00 +12°C° 0.1 mm 3 mps 709 mmHg 75%
    13:00 +12°C° 0.1 mm 3 mps 709 mmHg 76%
    14:00 +12°C° 0.1 mm 3 mps 708 mmHg 77%
    15:00 +11°C° 0.2 mm 3 mps 708 mmHg 80%
    16:00 +11°C° 0.2 mm 3 mps 708 mmHg 84%
    17:00 +10°C° 0.2 mm 2 mps 708 mmHg 88%
    18:00 +10°C° 0.1 mm 2 mps 708 mmHg 90%
    19:00 +10°C° 0.1 mm 2 mps 708 mmHg 92%
    20:00 +9°C° 0.1 mm 2 mps 709 mmHg 93%
    21:00 +9°C° 0.2 mm 2 mps 709 mmHg 94%
    22:00 +9°C° 0.2 mm 2 mps 709 mmHg 94%
    23:00 +9°C° 0.2 mm 2 mps 709 mmHg 94%

    24 October, Tuesday

    Time Temperature Precipitation Wind Pressure Humidity
    00:00 +9°C° 0.4 mm 2 mps 709 mmHg 94%
    01:00 +9°C° 0.4 mm 2 mps 709 mmHg 94%
    02:00 +9°C° 0.4 mm 2 mps 709 mmHg 95%
    03:00 +9°C° 0.3 mm 2 mps 709 mmHg 95%
    04:00 +8°C° 0.3 mm 2 mps 709 mmHg 95%
    05:00 +8°C° 0.3 mm 2 mps 710 mmHg 95%
    06:00 +8°C° 0.1 mm 2 mps 710 mmHg 95%
    07:00 +8°C° 0.1 mm 2 mps 710 mmHg 95%
    08:00 +8°C° 0.1 mm 2 mps 711 mmHg 95%
    09:00 +8°C° 0.1 mm 2 mps 711 mmHg 93%
    10:00 +9°C° 0.1 mm 2 mps 712 mmHg 92%
    11:00 +9°C° 0.1 mm 2 mps 712 mmHg 90%
    12:00 +9°C° 0.1 mm 2 mps 712 mmHg 90%
    13:00 +9°C° 0.1 mm 2 mps 713 mmHg 89%
    14:00 +9°C° 0.1 mm 2 mps 713 mmHg 88%
    15:00 +9°C° 0.2 mm 2 mps 713 mmHg 90%
    16:00 +9°C° 0.2 mm 1 mps 714 mmHg 91%
    17:00 +9°C° 0.2 mm 1 mps 714 mmHg 92%
    18:00 +9°C° 0.3 mm 1 mps 715 mmHg 93%
    19:00 +9°C° 0.3 mm 1 mps 715 mmHg 94%
    20:00 +8°C° 0.3 mm 1 mps 715 mmHg 94%
    21:00 +8°C° 0.2 mm 1 mps 716 mmHg 94%
    22:00 +8°C° 0.2 mm 1 mps 716 mmHg 94%
    23:00 +8°C° 0.2 mm 1 mps 717 mmHg 94%

    25 October, Wednesday

    Time Temperature Precipitation Wind Pressure Humidity
    00:00 +8°C° 0.1 mm 1 mps 717 mmHg 94%
    01:00 +7°C° 0.1 mm 2 mps 717 mmHg 94%
    02:00 +7°C° 0.1 mm 2 mps 718 mmHg 95%
    03:00 +7°C° 0 mm 2 mps 718 mmHg 95%
    04:00 +6°C° 0 mm 2 mps 718 mmHg 95%
    05:00 +6°C° 0 mm 2 mps 718 mmHg 94%
    06:00 +6°C° 0 mm 2 mps 719 mmHg 94%
    07:00 +6°C° 0 mm 2 mps 719 mmHg 93%
    08:00 +5°C° 0 mm 3 mps 719 mmHg 93%
    09:00 +6°C° 0 mm 2 mps 720 mmHg 90%
    10:00 +7°C° 0 mm 2 mps 720 mmHg 88%
    11:00 +7°C° 0 mm 2 mps 720 mmHg 86%
    12:00 +7°C° 0 mm 2 mps 720 mmHg 85%
    13:00 +7°C° 0 mm 2 mps 720 mmHg 83%
    14:00 +8°C° 0 mm 2 mps 720 mmHg 82%
    15:00 +7°C° 0 mm 2 mps 720 mmHg 83%
    16:00 +7°C° 0 mm 2 mps 720 mmHg 85%
    17:00 +6°C° 0 mm 2 mps 721 mmHg 87%
    18:00 +6°C° 0 mm 2 mps 721 mmHg 89%
    19:00 +5°C° 0 mm 2 mps 721 mmHg 90%
    20:00 +6°C° 0 mm 1 mps 721 mmHg 92%
    21:00 +5°C° 0 mm 1 mps 722 mmHg 93%
    22:00 +5°C° 0 mm 1 mps 722 mmHg 93%
    23:00 +5°C° 0 mm 1 mps 722 mmHg 93%
    Show more